Location: Goettingen
(51.5300°N, 9.9433°E)
Time: 16:16:54
(UTC+01:00)

ISS - Pass Details

Date: 11 December 2025
Orbit: 416 x 420 km, 51.6° (Epoch: 12 December)

Event Time Altitude Azimuth Distance (km) Brightness Sun altitude
Rises 07:12:29 0° 191° (SSW) 2,357 0.2 -9.2°
Reaches altitude 10° 07:15:51 10° 155° (SSE) 1,499 -0.1 -8.8°
Maximum altitude 07:16:53 11° 137° (SE) 1,435 0.2 -8.6°
Drops below altitude 10° 07:17:55 10° 119° (ESE) 1,502 0.8 -8.5°
Sets 07:21:19 0° 83° (E) 2,371 1.1 -8.0°
